Theta_e
352 351 352 353 356 354 351 347 321 328 327 316 319 320 319 331 329 325 324 329 326 331 334 331 331 330 328 324 328 331 331 326 330 318 319 338 350 350 353 353 354 356 356 358 361 362 362 363 362 362 363 362 359 362 362 362 362 362 363 363 363 364 364 364 365 364 364 364 364 363 363 364 363 364 363 364 363 362 361 360 360 360 360 361 362 362 361 361 361 361 361 361 362 362 363 363 364
348 345 349 354 351 349 338 342 323 321 322 318 319 325 324 327 327 324 324 327 328 328 332 333 332 331 330 330 332 333 331 335 337 335 341 347 351 349 351 354 355 355 355 357 358 358 360 362 363 364 361 361 362 360 356 361 363 362 363 363 363 364 363 362 362 362 362 362 363 364 363 364 364 363 363 363 362 362 360 359 359 359 360 360 361 360 361 361 361 361 362 362 361 362 363 364 363
345 348 348 352 355 350 344 341 318 319 314 312 320 322 329 324 325 327 329 330 329 333 332 330 330 329 327 329 326 328 325 338 338 340 341 348 343 346 351 354 355 354 355 356 357 357 360 363 364 363 363 362 363 361 359 362 362 362 362 362 362 363 364 364 363 363 362 362 363 363 363 363 364 363 362 362 362 361 360 360 359 362 363 362 361 361 362 361 362 361 363 362 361 362 363 364 363
347 352 358 356 339 349 331 329 323 319 314 317 318 325 326 325 325 329 332 330 331 330 329 326 327 333 328 324 327 334 332 334 341 340 339 343 344 349 352 354 355 353 354 355 356 357 361 364 365 363 362 362 362 362 362 363 362 362 362 362 362 362 362 363 362 363 363 362 362 362 362 363 362 361 361 362 363 361 361 360 361 362 362 362 363 362 363 362 362 363 364 363 363 363 364 364 364
345 351 356 352 343 330 330 326 325 324 316 323 318 325 327 328 328 329 330 332 329 330 330 329 327 332 334 329 333 328 329 338 340 344 343 345 350 351 353 353 353 352 353 353 353 357 361 365 364 363 363 362 362 362 364 363 363 362 361 361 361 361 361 361 362 362 361 361 361 362 362 362 361 362 362 362 362 363 362 362 361 362 361 362 362 361 362 362 363 363 362 364 365 364 363 363 363
348 358 360 352 336 346 335 323 322 321 327 329 323 325 328 329 329 329 329 331 333 332 332 330 328 326 324 325 332 328 335 330 341 343 344 345 351 352 353 354 353 353 353 352 354 358 361 365 364 363 362 362 362 362 361 361 361 361 361 360 360 361 362 361 361 361 360 360 361 362 363 361 361 361 361 361 362 361 362 363 363 362 362 362 362 363 363 363 363 362 362 361 361 363 363 363 363
349 350 349 349 342 344 323 322 322 324 326 329 328 327 328 329 330 330 330 329 333 334 335 330 331 329 326 330 332 336 341 343 341 343 347 349 352 353 354 354 354 352 351 351 356 359 362 364 364 364 363 363 362 362 362 362 361 360 360 359 359 360 360 361 361 361 360 360 361 362 362 362 361 360 360 360 360 361 361 362 362 362 362 362 363 363 363 362 363 363 363 362 363 362 363 363 363
356 346 343 334 327 330 322 323 323 327 328 333 333 330 331 331 333 332 331 329 328 328 329 331 332 327 325 333 324 335 341 346 345 348 350 350 353 353 354 351 348 349 350 357 360 363 368 363 363 363 363 364 363 362 361 361 360 359 358 359 357 360 360 362 361 360 359 360 360 360 361 362 361 361 360 360 360 361 361 362 361 362 361 362 362 362 362 363 363 363 362 362 362 363 363 364 364
353 346 346 333 322 327 322 323 323 330 331 334 332 336 337 334 333 332 331 333 332 330 330 331 330 323 324 328 328 337 341 346 348 351 349 351 351 352 352 351 349 349 352 356 359 361 363 364 363 363 363 363 362 361 360 360 360 360 360 360 360 360 358 359 361 359 359 359 360 359 361 360 361 361 362 361 360 361 362 362 362 361 361 362 361 362 362 362 363 363 362 362 362 362 363 363 363
349 342 331 328 328 320 322 322 322 327 330 333 331 332 333 335 333 335 332 331 331 330 331 335 332 326 330 327 331 336 339 346 347 347 349 349 350 350 348 350 350 350 352 355 358 360 361 367 364 364 362 362 362 361 361 361 361 359 360 359 360 360 359 359 360 360 360 359 360 360 360 361 360 360 360 361 360 361 361 361 362 361 360 361 361 362 362 363 363 362 362 362 362 363 363 364 363
335 344 342 327 320 319 317 320 325 327 331 333 333 336 336 337 335 334 335 333 337 331 334 334 328 329 330 330 333 342 345 346 344 343 348 349 348 347 347 350 351 352 353 356 359 360 361 362 366 362 362 361 360 360 361 361 360 360 360 360 359 359 359 358 359 361 360 359 359 360 360 360 361 361 361 361 361 361 362 362 361 360 360 361 361 360 361 362 362 362 362 362 362 363 363 363 362
334 330 334 322 319 320 322 322 323 327 333 334 331 336 338 336 337 333 333 331 332 331 332 333 326 333 329 330 331 339 343 343 344 347 348 348 347 346 347 349 351 353 356 356 358 359 361 361 361 363 361 359 359 358 357 359 359 359 358 358 358 358 359 358 358 360 359 358 359 359 359 361 361 361 361 361 361 361 361 361 360 360 361 360 361 362 362 363 362 362 362 362 362 362 362 362 361
335 339 331 325 324 323 325 323 323 327 327 330 333 337 338 335 334 335 335 335 335 331 333 336 335 334 326 328 335 338 339 343 345 348 348 346 346 346 347 348 351 354 355 357 356 358 360 360 359 359 359 359 358 359 358 358 358 358 358 357 358 358 359 358 358 358 358 360 359 359 360 360 361 360 359 360 361 361 361 361 362 362 362 361 362 362 363 363 363 363 362 361 361 361 361 361 361
336 338 333 321 332 324 324 323 327 324 326 331 339 341 339 336 336 339 336 333 334 333 336 338 335 334 329 330 331 333 338 344 345 348 348 346 345 345 346 349 351 352 356 356 359 357 358 358 358 358 357 356 356 357 358 358 358 358 359 359 358 358 358 358 358 358 359 359 360 358 359 358 360 361 360 360 360 361 361 360 360 361 361 362 363 363 362 363 364 364 363 362 362 362 362 363 362
336 343 333 327 325 327 327 321 323 324 325 334 336 334 332 342 339 338 337 334 335 337 339 342 336 332 323 327 327 333 338 342 344 346 346 345 344 344 345 350 350 353 354 355 356 354 356 358 357 356 356 355 356 357 357 357 359 359 359 358 359 360 360 358 358 357 358 360 359 359 358 359 359 359 359 362 362 362 362 361 362 362 362 362 363 362 363 364 364 363 363 363 363 363 362 361 361
338 341 333 324 320 321 326 323 328 325 326 335 338 339 338 340 346 337 339 341 337 341 340 332 338 331 331 330 332 337 341 343 345 346 344 343 343 343 344 351 352 352 354 355 354 356 358 357 354 354 356 357 358 358 358 358 358 359 359 360 359 359 359 359 359 358 359 360 360 358 358 357 357 356 360 360 361 361 361 361 362 363 363 363 362 363 364 364 363 363 363 362 362 362 362 362 360
343 337 327 325 320 322 325 323 329 322 330 336 340 338 336 337 343 343 346 346 336 335 337 336 334 334 332 334 338 341 342 344 346 343 342 341 342 340 343 344 351 351 353 352 352 355 355 355 355 355 357 357 357 359 358 358 358 360 359 359 359 359 359 359 359 359 359 359 359 358 359 358 358 358 358 357 359 359 360 362 362 362 363 363 363 363 363 363 363 363 363 363 363 362 363 363 362
338 329 326 322 324 324 328 327 328 335 332 335 336 339 338 334 340 343 343 340 339 335 335 334 334 335 338 339 342 342 343 343 343 341 340 339 341 340 340 342 346 349 349 351 353 355 353 355 357 357 357 359 359 358 358 358 358 358 358 358 358 358 359 360 358 356 357 357 359 359 359 358 358 359 359 360 358 360 359 361 361 362 362 362 361 362 362 363 362 364 364 364 364 364 363 362 362
331 332 327 320 326 330 335 335 336 336 332 337 338 341 338 337 341 343 336 335 334 331 330 331 331 335 338 340 341 341 341 342 341 340 339 338 338 339 339 341 345 347 350 350 352 351 352 354 356 357 360 360 359 358 358 358 357 358 358 358 357 357 358 360 359 358 356 356 356 358 362 359 358 358 360 357 359 360 359 361 362 363 362 361 361 362 361 362 363 362 364 365 365 365 363 366 363
336 330 324 329 332 335 338 339 336 339 338 337 337 339 340 340 341 344 335 333 334 329 326 328 330 331 334 337 339 340 341 341 341 340 338 339 340 339 339 340 342 346 349 350 352 354 357 354 354 355 355 359 360 359 358 357 357 359 358 358 358 356 356 357 357 356 356 355 355 357 359 359 359 360 361 362 360 359 360 362 363 363 362 361 362 361 362 362 363 364 365 366 365 365 364 365 361
334 328 323 324 333 333 337 339 338 340 341 338 338 338 336 340 342 340 335 330 330 330 332 330 330 332 334 336 338 339 339 339 339 338 338 338 340 340 340 340 342 347 349 351 352 352 354 354 356 356 358 359 359 360 359 358 360 359 358 359 358 357 357 356 356 355 356 356 359 360 357 357 358 359 359 359 358 360 361 361 361 360 361 361 363 363 363 362 362 363 362 363 364 364 363 362 358
333 328 329 331 335 334 338 339 341 340 343 341 339 335 335 343 341 339 337 330 326 331 333 333 334 334 335 335 337 339 338 338 337 337 337 338 338 339 340 341 343 349 352 349 351 353 352 352 353 356 356 356 357 356 357 359 360 357 358 359 358 357 358 357 357 357 358 360 359 357 357 357 358 359 359 359 360 361 360 360 361 362 362 362 364 364 362 362 363 363 362 362 362 362 357 364 359
325 330 333 335 336 336 338 340 341 342 340 338 336 339 341 339 338 339 337 335 336 339 335 334 336 336 337 337 337 337 337 336 336 336 337 337 338 339 338 342 343 349 351 350 353 354 356 355 356 356 355 357 355 358 357 359 358 358 358 359 357 357 358 357 357 356 358 360 358 358 357 356 356 357 357 360 360 361 360 360 361 362 361 360 363 362 361 363 363 362 364 362 362 361 354 364 360
330 324 331 336 339 337 338 337 342 341 340 337 342 343 337 337 331 340 338 338 340 339 335 335 336 337 337 335 336 337 336 335 335 336 338 337 338 338 338 340 343 347 351 349 350 353 355 356 357 355 356 356 355 358 356 356 357 356 356 360 360 360 359 356 355 357 359 359 360 358 359 357 356 356 357 359 360 360 359 360 362 359 359 360 361 360 360 363 362 365 363 358 355 357 347 350 351
327 325 334 337 339 338 337 338 339 342 341 342 343 337 335 337 337 339 334 338 338 339 336 334 335 335 335 335 335 336 335 336 335 335 337 338 338 338 339 342 344 348 347 347 351 353 354 355 359 355 355 356 357 356 355 356 355 356 357 358 358 362 362 356 357 360 359 359 359 362 361 355 357 357 357 357 361 360 361 360 358 357 358 360 363 360 359 363 365 361 362 360 366 363 357 352 350
333 329 335 337 336 336 338 339 341 342 342 341 336 335 340 338 341 338 337 339 339 338 337 333 333 333 333 334 335 335 335 335 334 335 336 338 337 337 338 340 344 345 347 347 348 351 355 354 356 355 355 353 354 356 355 355 357 359 357 357 358 360 360 357 357 355 359 359 359 360 361 357 355 356 358 360 359 360 361 362 363 360 359 369 362 363 369 369 361 361 363 358 362 354 359 357 358
331 331 333 336 336 336 339 338 341 342 339 339 332 331 333 342 339 327 338 338 336 335 333 333 332 332 334 334 334 335 335 335 334 337 336 336 336 336 337 339 343 345 348 349 348 353 356 356 354 354 358 357 354 352 352 355 357 359 362 357 358 359 361 365 358 356 356 358 360 363 361 365 359 355 358 361 360 359 361 365 359 365 363 361 366 360 363 362 367 365 361 364 367 362 362 356 365
332 337 337 337 337 338 339 340 339 339 336 340 339 335 338 338 337 330 336 338 336 333 331 331 332 332 333 333 333 335 335 336 337 337 334 334 334 336 337 339 342 345 346 346 349 352 354 355 353 355 354 355 354 353 356 354 353 356 359 364 359 360 363 358 359 356 357 357 360 361 363 362 364 360 360 360 358 358 356 357 358 363 361 366 364 361 362 369 370 369 367 371 366 361 364 353 359
333 337 331 333 336 333 335 336 338 339 334 341 339 332 329 331 330 336 337 335 336 334 332 331 331 331 332 333 333 334 335 337 337 336 337 336 336 337 338 341 343 346 348 348 348 351 351 353 353 355 358 357 355 353 353 354 356 355 355 357 360 356 359 358 355 354 357 359 361 360 362 363 366 360 366 364 362 360 354 356 357 359 363 362 363 361 364 368 365 369 366 370 370 363 356 359 351
331 335 331 330 330 327 334 335 337 335 337 340 337 316 322 330 334 338 337 336 335 333 331 331 332 332 331 332 333 334 335 336 336 337 338 335 336 337 339 342 345 346 347 348 349 350 350 352 354 355 354 352 353 351 354 354 355 356 359 357 360 358 356 352 353 357 360 363 364 365 365 368 368 372 370 366 361 360 356 359 362 364 366 369 369 371 368 365 364 362 361 362 362 361 354 359 357
318 330 331 324 320 321 331 332 335 333 339 340 334 316 320 330 336 338 339 339 335 330 331 330 331 331 330 331 332 332 334 336 337 337 338 336 336 338 340 343 345 346 347 348 349 349 350 352 350 353 355 355 354 355 354 355 354 355 359 360 359 359 353 350 352 355 358 358 361 365 369 368 368 370 368 379 364 365 360 361 360 364 367 370 371 372 372 367 368 365 369 365 363 365 356 367 352
320 320 317 322 318 322 329 334 333 328 334 336 331 319 321 328 334 341 340 339 338 330 330 331 330 331 330 330 332 332 334 336 338 338 337 337 336 337 340 342 346 346 347 349 349 349 349 351 352 352 353 354 355 357 357 360 355 356 360 360 356 356 351 350 351 352 355 357 360 364 368 368 369 372 372 371 371 367 362 361 366 371 370 368 371 371 371 369 368 366 369 368 369 359 358 354 358
319 314 314 318 321 323 322 332 336 337 333 335 332 321 323 328 335 340 341 339 336 331 331 331 331 332 330 329 332 332 333 333 337 337 337 338 337 337 341 344 345 346 349 349 348 349 350 351 352 350 352 353 356 355 358 358 360 358 359 352 350 354 348 351 353 353 354 357 361 362 368 370 370 372 372 368 372 368 366 363 365 365 369 372 373 370 368 369 375 358 368 373 367 368 359 351 354
314 317 313 321 317 321 319 330 333 335 332 327 330 326 327 329 333 336 341 340 336 330 330 331 331 331 332 330 331 331 333 333 334 338 336 338 337 338 340 348 346 348 350 349 349 348 348 350 349 351 352 354 357 359 360 357 356 360 358 357 365 354 353 353 359 357 362 358 361 364 369 372 372 370 370 372 375 363 366 364 364 367 368 370 372 370 368 366 366 365 366 374 371 368 363 359 351
311 313 313 316 322 322 320 321 328 333 329 328 326 327 327 330 333 334 337 340 337 331 330 331 331 331 332 330 332 331 332 332 334 338 336 339 338 338 341 345 346 348 349 349 350 352 351 351 353 355 353 355 356 360 364 360 358 361 355 357 357 359 362 356 357 358 358 359 359 366 370 369 367 371 372 369 371 363 366 368 368 367 369 371 370 368 362 365 365 363 361 366 371 369 366 363 353
314 315 318 319 316 317 320 327 332 331 326 326 325 323 325 330 333 333 334 337 335 333 332 332 331 333 333 331 332 332 332 331 336 338 336 339 338 338 341 345 347 348 349 350 352 350 356 354 352 357 357 355 357 359 359 355 355 353 351 355 354 355 355 358 357 356 360 361 361 363 370 372 372 372 370 370 371 373 364 369 368 366 369 372 369 364 362 364 368 366 365 361 364 365 367 360 354
316 316 315 317 318 319 326 328 332 333 326 325 324 326 326 329 331 334 335 335 337 336 336 331 331 332 332 330 332 332 332 333 337 338 337 338 337 338 342 346 347 348 351 351 349 349 353 351 354 355 356 358 358 357 356 354 352 353 354 349 351 351 353 356 353 355 358 358 361 364 370 366 371 371 371 372 370 374 373 373 374 370 369 371 371 365 362 362 368 369 368 367 360 360 358 358 353
314 317 316 319 319 318 325 327 330 333 326 323 327 325 324 328 332 332 334 335 334 335 334 332 330 332 334 333 332 333 333 336 337 337 337 336 336 338 341 345 349 346 350 351 350 350 354 351 353 353 356 358 357 356 358 356 359 353 351 349 350 350 356 357 354 356 355 357 367 369 370 368 371 372 373 372 370 372 373 368 370 374 370 371 376 372 364 367 368 365 365 364 364 358 354 349 350
316 318 317 318 319 323 326 327 330 331 326 320 324 322 324 326 330 332 334 334 338 339 335 335 333 333 335 335 333 336 333 334 334 336 336 334 336 337 340 344 346 348 348 350 353 352 353 353 358 359 356 356 357 359 364 361 362 364 364 359 355 352 354 358 354 357 361 359 360 367 370 371 371 371 370 370 368 366 368 371 373 379 373 371 374 375 372 367 372 363 365 366 364 361 357 354 363
313 317 312 314 320 317 314 323 327 327 325 320 322 322 324 328 331 332 334 334 338 342 343 343 347 335 334 334 335 336 333 334 333 335 334 334 336 336 339 342 346 348 349 348 351 353 352 357 359 360 358 358 361 362 365 360 362 364 368 361 357 359 357 358 360 361 361 358 358 364 369 370 368 365 366 363 366 363 366 370 366 371 372 371 371 370 371 365 370 367 362 363 366 355 351 356 354
313 313 314 314 318 320 319 319 325 327 327 327 323 321 318 322 324 325 332 340 338 339 340 341 343 341 345 341 340 341 335 334 334 334 334 335 336 336 338 343 346 348 346 348 349 352 353 352 358 361 360 361 362 363 365 367 367 364 365 365 364 361 362 361 359 354 357 360 359 361 362 367 369 365 365 365 367 369 369 369 369 366 375 372 372 375 371 362 364 363 368 371 364 362 348 356 356
311 314 314 315 318 319 318 321 323 319 317 323 320 309 312 321 324 324 331 332 332 337 336 337 340 341 341 340 337 338 340 337 336 335 334 336 337 339 341 343 345 348 347 348 350 350 355 356 359 363 363 364 360 363 368 369 367 363 359 359 359 358 358 357 356 355 354 355 355 356 361 362 364 366 368 369 368 368 369 369 368 366 368 373 369 370 365 365 365 365 369 361 360 368 358 355 357
309 310 315 315 315 317 320 320 319 312 309 319 325 311 309 319 320 325 328 327 329 335 335 336 339 340 341 341 341 337 337 338 338 336 336 336 337 340 341 342 345 347 347 349 351 350 354 356 358 361 363 364 362 366 367 368 365 364 361 356 356 357 358 358 364 361 361 358 362 361 364 363 367 363 361 367 367 371 371 372 368 372 367 370 371 371 367 361 359 360 364 368 366 368 366 359 355
308 315 314 314 316 319 320 320 316 316 319 323 321 317 310 310 317 325 326 326 327 330 333 335 338 341 340 341 340 339 339 339 337 336 336 338 338 340 341 343 344 346 348 349 348 350 356 360 360 362 364 365 363 366 366 366 364 365 362 358 357 357 354 358 360 362 360 366 360 359 362 365 365 368 366 371 369 368 370 370 373 371 371 366 374 370 365 366 364 367 368 373 371 370 368 362 358
310 314 313 313 317 315 321 319 316 315 314 314 316 320 310 309 316 327 327 323 325 326 329 332 337 340 340 341 340 338 337 341 340 337 335 338 339 341 342 343 344 347 347 347 347 350 356 359 361 362 363 365 364 367 365 365 367 365 361 360 360 361 360 359 361 363 362 364 361 361 364 361 366 370 367 366 369 367 369 370 371 370 370 369 377 367 364 363 361 366 373 372 370 374 373 370 365
313 315 315 313 316 316 314 313 312 315 310 306 312 317 307 307 318 320 326 323 323 325 329 332 336 338 338 338 339 340 340 340 339 339 338 340 341 342 344 344 344 345 346 348 348 351 355 358 360 361 363 365 364 366 366 366 366 366 361 360 358 359 362 362 361 362 368 365 361 363 369 368 359 363 366 369 370 368 368 370 366 363 365 360 363 366 361 362 366 369 366 364 370 369 371 367 368
316 315 312 311 311 311 312 311 311 309 302 305 314 316 312 304 315 318 318 320 325 327 329 332 334 337 339 339 339 341 338 339 340 339 339 341 343 344 346 343 344 344 347 347 348 351 355 356 358 359 363 364 365 365 365 364 365 364 362 363 360 358 358 359 362 361 367 362 362 361 365 369 366 361 359 365 365 364 367 369 362 362 363 371 366 368 366 362 357 362 358 367 366 372 370 371 361
313 311 309 308 308 309 307 308 311 302 300 308 313 313 313 303 312 321 325 329 329 328 328 331 332 334 337 338 339 340 340 340 339 338 337 340 347 347 346 345 344 345 345 346 348 350 355 357 357 360 361 365 365 362 364 361 361 363 363 361 360 362 360 358 358 359 360 361 360 361 367 368 365 361 364 361 360 359 366 367 368 366 368 366 368 370 369 364 360 362 366 371 372 373 372 373 365
311 310 308 302 301 302 298 303 298 299 299 307 312 313 311 309 316 322 327 328 329 331 332 332 332 334 336 339 340 340 341 339 339 339 338 339 344 344 344 345 349 347 347 348 348 350 353 354 357 358 360 364 365 362 363 363 363 364 364 360 359 360 359 363 362 361 359 362 361 360 363 362 365 366 364 356 356 359 366 368 368 371 378 373 378 373 371 367 371 370 365 363 365 368 368 366 367
309 307 305 301 297 297 294 298 302 302 305 310 309 313 306 315 317 327 327 331 333 335 335 334 334 335 337 338 340 341 340 341 341 339 339 340 343 343 344 346 346 345 345 346 351 353 355 354 357 357 359 363 365 363 361 361 363 364 365 364 364 361 360 359 360 362 361 363 364 364 360 357 363 359 357 361 358 356 358 363 366 367 373 372 372 372 369 370 371 371 368 368 361 368 378 373 372
308 311 307 304 302 299 295 298 296 298 301 306 311 306 303 309 316 324 327 331 334 335 338 339 337 339 339 340 341 341 340 343 346 338 340 341 343 345 346 345 346 345 345 344 349 352 357 356 359 361 359 361 364 363 363 362 362 361 362 362 365 362 362 360 360 361 362 362 363 359 362 361 357 359 369 366 370 367 362 365 364 365 368 371 372 371 363 371 367 371 375 370 373 366 370 367 368
310 310 311 305 303 308 299 302 302 302 301 302 305 306 315 314 324 330 330 330 330 334 335 337 334 336 338 336 338 340 340 341 340 340 341 343 344 346 347 346 346 345 350 346 352 354 353 356 358 358 358 359 361 363 363 362 363 361 361 360 362 365 366 362 359 360 363 362 363 367 365 366 365 374 365 366 358 364 365 364 364 362 370 366 370 371 371 368 370 370 369 370 369 362 367 365 365
307 307 302 305 311 308 305 305 306 306 302 300 309 314 318 322 326 327 329 328 330 330 331 332 335 337 337 337 339 341 341 340 343 339 340 343 343 344 345 346 345 345 346 346 352 353 357 359 357 358 359 358 358 362 360 361 363 363 362 360 363 364 362 359 357 360 360 363 367 364 364 360 365 371 364 364 361 368 371 367 363 359 366 369 369 371 369 370 374 370 365 371 369 361 368 367 365
308 302 306 312 314 312 306 298 302 300 297 300 305 304 309 310 308 325 325 327 328 327 328 330 332 336 334 333 334 337 341 344 348 347 347 344 345 345 346 345 346 347 347 351 356 353 357 358 358 357 357 356 356 357 357 358 361 361 362 361 362 360 359 358 360 357 358 361 364 360 361 362 361 361 361 363 363 361 366 365 366 367 364 364 366 365 368 369 374 372 369 373 370 373 371 371 368
308 307 313 304 300 299 304 302 295 296 296 299 303 305 310 311 310 318 320 323 325 326 329 330 331 332 335 335 337 339 342 344 345 348 346 346 345 348 347 346 346 350 359 356 355 355 355 356 357 356 355 354 355 355 356 358 359 358 358 359 358 359 357 357 359 361 360 359 358 360 359 366 362 365 366 364 365 360 363 365 370 364 367 366 366 366 370 370 372 372 367 369 369 372 369 369 370
311 312 308 311 306 302 300 302 304 303 297 298 300 304 304 314 318 323 319 324 324 328 330 329 332 335 334 334 337 338 341 343 344 345 351 348 347 346 349 347 345 349 352 352 350 353 349 353 356 357 354 355 357 354 356 354 356 355 355 358 361 363 362 359 363 360 356 356 358 357 358 356 361 359 359 361 361 362 362 359 359 359 360 363 363 362 363 368 370 369 364 361 366 372 369 367 365
303 304 305 306 305 308 307 307 303 301 299 300 299 298 308 318 327 328 325 327 329 329 331 332 333 335 335 335 337 338 340 341 344 348 349 353 357 357 353 349 352 350 351 353 353 354 355 350 351 349 351 350 350 351 352 354 355 356 357 357 356 358 356 356 357 360 358 358 359 360 357 358 361 359 360 360 361 362 362 361 358 361 357 363 367 366 365 369 370 370 369 368 370 369 369 367 370
305 304 304 305 303 300 298 297 306 304 301 297 299 298 310 323 330 329 328 330 331 333 333 333 334 335 336 337 338 339 339 340 343 346 348 351 355 355 355 355 354 355 353 354 355 354 354 349 349 349 349 349 348 348 351 355 355 353 352 353 355 355 356 356 354 354 356 356 356 359 360 359 356 358 359 357 360 357 362 361 360 360 365 359 367 368 361 363 367 368 364 360 364 369 367 366 368
Wind_Speed
8 9 8 9 7 4 3 3 3 1 2 4 5 3 2 2 11 13 13 10 8 8 7 9 7 4 7 11 15 15 15 8 8 3 8 8 12 15 17 17 17 16 15 13 11 10 10 8 11 12 12 14 8 6 7 9 9 9 9 9 8 9 10 10 10 10 10 11 12 12 13 14 14 13 13 15 14 14 14 13 13 12 8 9 10 10 12 12 12 12 12 13 13 13 12 13 13
9 9 9 9 3 2 0 2 1 3 3 2 6 9 10 10 12 12 12 9 7 10 9 6 7 13 17 15 14 17 19 16 18 16 13 13 14 14 17 18 17 17 15 13 12 11 11 10 11 12 14 13 11 10 6 6 8 8 8 8 8 9 9 9 9 10 10 11 11 12 13 14 14 13 13 13 14 14 14 14 11 10 7 9 11 12 11 12 12 12 12 12 12 12 12 12 12
8 9 6 5 7 2 1 1 0 2 2 2 6 8 11 11 11 11 9 10 14 11 10 8 11 8 12 12 14 16 13 18 22 20 13 15 15 11 16 17 16 16 16 13 13 12 10 11 11 13 15 13 12 11 6 7 8 8 7 7 7 8 8 10 10 10 10 11 12 12 12 14 14 14 13 12 13 14 14 13 11 8 11 12 12 12 12 11 12 13 12 11 11 12 11 11 11
9 4 4 4 2 1 1 0 2 3 2 5 6 9 10 11 12 11 11 14 12 12 9 10 7 2 12 15 16 18 15 13 16 18 12 12 12 14 16 15 18 14 14 12 11 12 11 12 12 13 12 13 13 10 9 7 7 7 7 7 7 7 8 10 11 10 11 11 11 11 12 13 13 13 13 12 13 13 12 12 11 9 11 13 13 13 12 12 13 13 11 11 11 11 11 11 10
7 5 5 3 1 2 1 1 2 0 2 0 7 9 11 12 14 12 12 10 12 10 11 11 11 14 12 12 10 9 13 17 16 13 13 14 18 15 14 15 15 13 12 13 14 13 12 16 14 13 12 12 11 10 9 8 7 6 7 7 7 7 8 9 10 11 11 10 12 11 12 12 13 12 12 13 13 14 14 13 10 9 11 12 13 13 12 12 13 13 11 9 10 11 11 10 10
7 2 2 0 2 2 2 2 1 3 4 5 6 9 11 13 14 13 14 11 9 12 11 11 11 12 12 13 10 13 14 10 13 13 15 15 20 19 17 15 15 13 12 14 14 11 12 16 14 13 11 11 10 9 9 7 7 6 7 8 7 7 8 9 9 10 10 10 10 11 11 13 13 12 12 12 13 14 14 14 11 10 12 12 12 12 13 12 13 13 12 10 12 10 10 9 9
3 4 0 2 2 1 2 1 1 1 5 3 3 11 12 13 13 13 12 12 11 11 12 14 16 14 11 10 14 14 16 17 12 14 14 19 18 16 14 14 14 15 14 13 13 13 14 14 14 13 12 11 10 10 8 7 6 6 7 9 8 8 8 7 10 10 10 9 10 10 10 12 13 12 11 12 13 13 15 14 13 13 12 12 10 11 12 12 12 13 13 12 11 10 10 9 9
3 3 4 2 1 0 3 1 1 3 4 10 8 12 12 12 12 12 10 9 10 9 12 12 12 14 16 13 13 13 14 13 18 19 20 17 18 15 14 14 14 14 15 14 13 12 15 14 13 13 12 12 11 9 8 7 7 6 8 10 9 7 8 10 10 11 11 11 10 11 11 12 13 12 12 10 12 12 13 14 13 13 13 10 10 10 11 11 11 11 11 12 11 10 9 8 8
3 3 1 0 2 1 2 2 0 4 4 8 11 10 10 10 12 12 9 8 10 11 13 15 14 14 13 16 14 14 15 19 19 19 20 19 17 18 12 14 14 15 16 14 13 12 12 14 13 13 13 12 11 10 10 8 7 6 8 10 12 10 8 10 11 10 11 11 11 11 11 12 14 14 13 13 12 12 13 13 14 13 12 11 11 10 10 11 12 12 11 11 10 8 8 7 7
2 1 2 2 1 1 0 1 3 1 2 7 12 11 9 8 11 9 11 11 10 12 13 13 14 17 17 18 15 12 14 19 19 18 18 19 18 15 17 14 16 18 16 14 12 11 10 13 13 13 14 13 10 10 9 9 9 8 9 8 11 10 11 11 12 11 10 11 12 12 11 12 13 13 13 13 13 13 13 14 14 14 12 11 10 9 9 10 11 12 12 10 9 8 7 7 7
2 1 1 2 1 1 2 3 1 2 5 8 10 9 7 9 10 9 8 10 7 13 15 17 16 18 15 14 11 13 18 18 18 18 16 15 15 15 15 16 16 17 15 15 13 12 10 10 14 14 14 12 10 10 10 10 9 10 10 9 10 10 10 10 11 11 11 11 12 12 12 13 13 13 13 13 14 13 13 14 14 13 12 9 8 9 8 10 11 12 11 9 9 8 6 6 6
1 1 4 1 3 1 2 3 6 5 5 9 9 8 5 9 9 10 12 10 12 12 12 11 12 16 16 14 12 14 17 17 17 16 15 15 12 14 16 14 16 16 16 15 13 12 10 9 9 12 13 12 11 10 10 10 9 9 7 8 8 10 9 9 12 11 12 12 10 13 13 13 14 15 14 14 14 13 13 13 13 13 11 10 9 10 10 11 12 12 10 9 8 7 6 5 5
3 3 2 1 2 0 1 6 4 5 2 6 9 5 7 9 9 10 10 10 9 14 10 12 16 13 15 13 11 15 16 16 15 16 15 13 13 11 14 15 16 16 15 14 14 12 11 9 8 8 10 12 10 11 11 10 9 9 8 8 9 10 10 10 11 11 12 13 11 12 14 13 13 14 15 13 13 14 14 13 12 11 11 10 10 8 9 11 12 11 9 8 7 6 5 5 4
2 2 3 3 2 1 5 3 3 5 4 4 2 8 8 4 10 8 9 11 9 9 13 15 13 14 16 15 12 13 13 16 16 15 13 15 12 12 17 15 16 15 14 14 11 10 9 9 8 8 9 7 7 8 11 10 9 9 10 10 9 9 10 10 11 13 14 12 13 12 13 14 13 13 14 14 13 14 13 13 13 12 11 10 9 9 10 10 10 9 7 6 6 6 5 5 3
6 4 2 2 2 2 7 4 8 5 4 2 5 6 2 6 5 8 10 11 10 11 13 11 14 12 11 16 13 13 15 17 16 15 15 13 14 13 16 15 15 16 14 13 12 10 9 8 8 7 8 7 7 5 5 7 9 8 9 9 10 11 10 11 12 13 13 12 13 14 12 13 13 14 12 12 13 13 13 13 12 12 11 11 10 10 10 10 9 8 6 4 4 5 5 4 3
3 8 0 2 1 4 2 5 5 5 4 3 6 7 2 1 6 6 5 4 7 8 8 11 11 7 15 13 17 18 19 17 15 15 14 15 14 12 12 17 14 14 12 13 13 5 3 8 6 6 7 7 6 6 6 7 8 10 10 10 11 12 12 12 13 13 14 12 13 15 14 11 12 12 14 10 11 13 12 11 13 11 10 10 10 10 9 9 9 7 5 4 4 4 3 4 3
5 2 1 1 3 3 6 7 7 3 9 5 5 4 6 5 3 6 6 6 9 9 8 8 9 15 14 15 19 20 19 17 16 16 14 12 10 9 9 11 12 11 8 12 13 6 4 6 7 6 7 8 7 6 6 7 8 10 10 11 12 13 13 13 14 16 12 11 12 13 11 8 7 7 7 8 10 8 8 11 11 11 11 10 10 8 8 8 7 6 5 4 4 5 4 5 4
7 1 2 2 4 5 5 9 8 5 8 6 6 5 7 7 4 4 10 7 7 8 6 11 15 14 18 19 19 19 18 18 17 16 14 12 9 9 8 9 11 8 10 10 12 11 5 5 6 6 7 7 6 7 6 6 6 9 8 7 8 9 11 12 10 10 9 7 13 9 6 7 6 6 6 8 5 7 8 11 11 11 11 10 8 7 6 5 4 4 4 5 5 6 6 3 3
2 2 1 4 1 1 2 8 9 9 10 8 7 6 7 9 7 6 7 9 10 8 10 14 17 20 20 20 19 18 18 17 16 15 15 13 11 11 9 9 9 12 10 10 11 13 7 4 6 6 5 6 6 6 6 6 6 5 7 6 7 10 7 6 7 9 6 6 5 5 5 6 6 6 5 5 5 8 9 11 11 10 9 8 7 5 2 2 1 3 4 5 5 7 5 5 3
1 4 1 4 3 7 9 9 10 4 13 9 7 8 6 8 6 6 8 10 9 10 13 18 19 21 20 20 18 18 17 17 16 15 15 13 12 10 11 11 9 11 11 10 12 9 6 6 9 7 5 5 4 5 6 6 6 5 6 6 7 7 6 6 6 7 5 6 6 4 5 5 6 5 10 12 10 6 7 10 11 10 9 7 7 3 2 2 3 5 6 6 6 5 5 5 5
4 4 5 1 6 8 8 6 8 11 11 10 7 6 5 5 4 5 10 11 8 11 13 16 20 21 21 19 18 16 17 17 16 15 14 13 12 10 9 11 9 9 8 10 10 11 7 7 6 8 7 5 4 4 5 5 5 4 4 6 6 6 7 7 8 9 7 7 6 6 8 6 6 6 6 6 4 5 5 5 4 3 3 4 5 2 2 2 3 3 4 5 4 6 7 8 7
5 4 8 7 8 11 13 4 10 12 10 8 8 10 8 7 5 4 8 8 8 9 14 17 19 20 21 20 18 16 16 16 16 14 14 14 13 11 10 12 11 12 7 9 9 11 12 7 7 6 6 5 5 2 4 5 6 5 4 5 5 5 5 6 6 7 7 6 6 7 7 7 6 5 5 5 5 5 5 4 4 3 4 3 4 2 2 3 4 5 4 5 6 5 7 1 2
4 7 9 12 8 12 12 8 5 8 10 9 8 6 6 5 8 3 9 3 6 8 14 17 18 19 19 18 17 17 16 16 16 15 14 14 12 12 12 12 10 8 9 10 12 8 11 11 10 8 8 7 7 5 3 3 4 5 5 4 5 5 5 6 6 6 5 5 6 8 7 6 6 5 5 4 4 4 4 4 4 3 3 3 3 3 3 3 3 4 4 4 6 8 2 1 3
6 5 7 12 11 17 11 8 8 5 10 8 4 5 5 5 9 4 2 7 7 11 15 17 18 18 18 18 17 16 16 16 15 14 14 14 13 12 11 13 11 10 8 11 11 11 10 14 11 8 6 6 5 6 6 5 4 4 5 4 3 4 5 6 7 7 6 5 6 6 7 6 6 6 6 5 4 4 4 4 3 3 3 3 4 3 3 3 3 3 5 6 4 3 5 3 2
5 5 11 12 13 16 12 8 8 7 6 6 6 5 7 6 8 6 5 11 11 10 15 18 18 18 17 17 17 16 15 15 15 14 12 11 13 12 11 13 13 10 11 11 11 10 13 10 13 13 10 7 6 7 6 6 6 5 5 4 3 4 3 5 6 6 6 5 4 4 4 6 5 6 6 6 4 3 3 3 3 3 4 3 3 3 3 3 3 3 4 3 2 1 3 4 4
9 12 8 9 16 14 6 9 9 8 5 6 9 5 2 6 3 9 13 13 9 14 14 18 18 17 17 17 16 15 14 15 15 14 13 11 12 13 12 11 12 12 10 13 11 9 9 14 10 14 13 9 5 3 3 4 5 5 5 5 5 4 4 6 7 6 5 5 3 2 2 5 6 6 5 4 4 3 3 3 1 3 3 2 3 2 2 2 5 5 3 3 1 2 2 2 3
11 12 10 10 18 13 8 10 9 7 6 7 8 6 2 0 2 8 10 9 14 15 17 17 17 17 16 15 15 14 14 14 14 12 11 11 11 11 12 12 11 12 11 12 11 10 10 9 12 13 10 12 7 6 4 5 5 4 5 5 6 5 5 4 5 6 6 5 4 3 2 2 4 6 5 4 4 3 2 0 2 1 3 2 2 3 2 4 2 2 1 2 3 4 1 2 2
12 15 17 13 13 11 9 9 10 8 4 6 7 8 4 5 3 8 9 10 13 15 17 17 16 15 14 16 14 13 13 12 11 12 13 12 8 9 11 9 12 12 11 13 10 11 10 12 11 12 14 11 10 8 4 5 5 5 4 2 3 4 4 3 3 6 5 5 6 5 5 3 3 4 6 6 5 3 3 2 3 2 2 2 1 3 2 2 3 1 2 2 4 5 3 4 3
13 14 14 11 10 7 8 8 7 4 4 7 8 10 7 2 7 8 9 11 11 13 14 16 16 15 15 14 13 11 12 11 10 10 11 9 9 9 11 11 12 10 9 12 13 12 14 11 12 12 12 13 13 14 10 7 5 6 4 4 3 4 4 5 4 6 5 4 6 8 7 6 3 4 4 4 5 6 5 3 4 3 3 4 2 2 2 3 3 2 2 2 3 3 3 2 5
12 10 14 9 7 3 4 8 5 4 5 10 8 7 6 4 8 8 10 11 10 12 14 14 13 14 14 13 12 12 12 11 11 10 10 9 9 10 11 12 12 10 9 8 13 14 11 10 8 9 11 11 12 12 10 10 8 6 5 6 7 8 7 4 6 4 4 3 3 4 5 6 3 3 4 4 3 4 8 6 4 4 3 3 1 2 2 1 3 4 4 4 4 5 4 3 3
9 11 9 7 4 6 7 4 8 8 6 3 7 6 8 7 7 8 8 10 11 13 13 14 13 14 13 13 12 12 13 11 11 11 12 10 10 9 12 12 12 12 9 10 13 13 11 12 10 8 10 11 9 10 8 8 10 9 5 3 3 3 4 5 7 7 5 5 4 4 4 4 2 2 1 1 3 2 3 3 3 2 3 3 2 1 1 1 1 2 2 2 3 2 4 1 4
7 11 6 7 7 7 7 10 12 9 6 5 3 2 7 10 9 5 8 9 10 12 14 14 14 13 14 13 12 13 12 12 12 12 13 11 12 9 11 12 12 12 11 10 11 10 12 11 12 11 11 11 9 7 6 5 7 7 6 5 5 4 4 6 6 7 7 6 5 4 4 4 4 3 2 2 1 1 3 2 3 2 3 4 3 2 2 1 1 1 2 2 1 4 4 5 3
9 11 8 8 6 7 6 9 8 5 11 8 4 4 8 6 9 6 7 10 10 11 11 14 15 15 14 13 12 12 12 12 13 13 13 10 11 9 12 12 11 11 12 12 10 10 11 12 13 14 12 11 9 10 9 6 5 4 5 8 8 5 6 5 4 5 6 5 5 5 3 3 3 4 2 2 2 2 2 4 3 3 3 2 2 2 2 2 2 2 1 1 2 2 5 7 3
9 10 8 9 8 10 3 9 7 9 11 9 5 7 6 8 9 6 6 9 10 12 13 12 14 12 13 12 12 13 12 11 13 11 14 11 10 9 11 10 11 12 12 12 11 11 11 11 11 12 13 11 8 7 7 8 7 5 4 4 2 4 6 6 4 3 3 5 5 4 4 3 4 5 2 1 1 2 1 2 3 4 2 3 2 2 3 2 2 2 2 1 0 2 3 6 4
7 8 6 5 8 11 8 7 11 10 12 10 9 7 8 7 7 7 9 8 9 12 13 12 12 14 12 12 12 14 12 12 13 11 13 12 13 11 12 11 11 12 11 12 11 8 9 9 9 10 10 11 9 8 5 6 7 4 5 4 3 4 3 4 4 4 4 3 6 5 4 4 4 5 3 2 2 2 2 1 4 2 2 2 1 1 1 2 1 1 0 1 2 2 4 6 4
6 3 4 5 4 3 6 7 10 14 12 9 11 7 6 8 7 10 11 12 10 8 10 10 12 12 11 12 12 12 12 13 12 13 14 12 11 12 12 11 11 11 11 11 10 10 8 9 10 7 8 10 9 7 5 5 6 6 7 4 3 4 4 5 5 5 4 3 7 6 3 2 3 3 4 2 0 0 2 1 3 3 3 2 1 1 1 2 2 1 2 4 4 4 5 4 6
8 8 8 3 4 5 4 8 10 12 10 9 11 7 8 9 9 8 12 10 5 4 2 9 11 10 12 11 13 13 13 12 13 13 13 14 14 12 11 11 11 12 12 12 11 12 11 10 9 9 8 8 7 6 5 5 5 5 5 7 5 7 7 7 5 4 5 6 6 6 5 4 3 3 5 3 2 1 1 0 2 2 2 1 1 1 2 3 2 1 2 2 4 5 6 7 2
11 10 6 10 6 2 4 5 9 7 6 6 4 9 10 8 8 12 11 11 9 8 7 8 14 13 9 11 13 13 12 11 14 12 13 15 12 15 12 10 11 13 11 11 11 11 11 12 10 10 8 7 7 6 5 5 4 5 5 5 6 6 4 4 6 6 6 6 6 4 4 5 3 3 3 3 2 2 1 2 3 1 1 1 2 3 3 1 3 2 1 2 3 5 4 3 5
13 6 5 8 8 8 7 2 4 2 4 3 6 9 11 9 9 10 12 11 7 7 8 9 10 12 10 10 11 12 13 12 13 14 13 14 14 15 12 12 11 12 14 13 11 10 11 9 7 7 8 7 6 6 4 5 4 4 3 5 2 4 4 2 7 5 5 7 6 4 4 4 3 3 3 2 2 4 1 3 0 1 2 1 3 3 1 1 1 3 0 2 5 4 3 1 1
13 8 4 5 13 13 3 5 4 7 3 6 10 10 4 7 7 8 10 11 7 6 5 1 3 7 12 11 11 11 13 11 15 14 14 15 13 14 12 13 11 12 11 12 13 11 10 8 8 7 7 6 5 6 4 5 6 4 4 7 2 2 3 1 4 6 5 6 7 6 4 4 4 4 4 4 4 4 2 1 2 1 2 2 2 2 0 3 1 2 1 2 2 3 5 1 3
12 8 10 6 14 9 7 7 7 7 7 4 8 5 6 5 5 9 10 8 6 7 7 4 4 2 3 7 8 9 11 14 13 15 14 14 14 14 12 12 13 12 12 12 13 11 9 12 9 7 6 6 5 6 6 6 6 6 5 5 4 2 1 3 3 5 4 4 5 5 5 5 3 4 4 3 3 4 4 2 0 2 1 2 1 0 1 3 2 3 1 3 2 2 5 1 3
6 11 13 10 11 11 11 11 9 5 4 4 10 2 4 6 8 8 5 3 6 8 9 8 4 3 4 4 11 11 12 14 14 15 15 15 14 14 11 13 13 12 12 12 13 13 13 11 10 8 6 6 7 8 7 5 5 6 4 3 3 2 2 3 0 4 5 5 5 5 6 6 5 4 3 2 3 3 4 5 4 2 2 3 1 0 1 3 1 5 2 1 4 2 3 6 1
8 10 13 14 12 9 20 11 5 3 4 7 8 5 1 2 6 8 8 7 10 7 11 10 7 5 6 6 7 12 12 12 15 13 13 16 14 15 14 14 13 13 12 13 12 13 14 13 11 9 7 6 8 8 7 5 5 5 6 5 4 2 4 2 1 2 2 3 2 3 4 4 3 4 5 3 3 3 2 2 2 2 2 2 3 2 0 3 3 3 2 1 2 4 5 4 6
9 12 11 15 12 18 21 14 7 2 1 3 10 8 4 4 8 9 12 13 14 12 12 12 9 8 8 8 8 7 9 11 13 15 14 14 15 15 15 15 14 13 14 13 12 12 14 11 12 9 7 7 7 8 7 6 6 5 4 4 3 3 3 3 2 1 1 3 3 3 3 3 3 3 2 3 3 3 2 2 2 2 1 3 1 1 3 2 3 2 2 1 3 4 4 4 4
10 6 17 8 15 16 17 12 10 8 5 2 6 9 2 6 6 9 13 13 15 16 15 15 13 11 10 9 9 12 15 14 15 15 16 16 15 15 15 14 15 14 13 13 13 11 13 11 10 10 8 8 8 9 7 7 6 5 6 4 4 3 2 3 1 0 1 3 4 4 3 4 4 3 4 4 3 3 2 2 2 1 1 2 0 3 3 4 5 1 3 0 1 3 3 2 3
14 8 9 11 10 13 14 11 10 10 8 7 10 10 8 1 3 9 11 12 15 16 17 17 14 12 11 10 11 14 13 10 12 15 16 14 15 16 15 14 14 14 13 13 13 14 13 12 10 11 10 8 8 9 8 8 7 7 7 5 6 4 3 3 4 3 1 5 1 1 2 3 4 4 4 3 3 3 3 3 2 3 3 2 2 2 2 2 5 3 2 1 2 1 4 3 2
14 9 6 9 4 9 12 9 7 8 11 10 17 20 11 3 8 12 13 14 16 12 11 12 14 13 13 13 14 11 14 15 13 15 16 14 15 15 15 15 13 13 12 13 13 14 13 12 12 10 11 8 9 9 8 9 8 7 6 6 7 6 5 4 3 4 1 4 1 1 1 1 2 4 5 4 4 5 4 3 4 4 3 1 3 2 4 5 2 1 4 4 3 1 3 3 4
11 7 9 6 8 5 8 6 6 7 8 7 13 17 15 8 7 11 15 9 14 15 17 17 18 18 15 15 13 14 13 13 14 14 14 15 11 11 9 12 13 13 13 12 13 13 13 12 11 10 10 10 9 10 9 8 8 8 7 7 5 4 5 4 5 3 2 4 5 3 1 2 4 4 4 5 5 7 4 3 3 2 3 1 2 3 0 2 2 4 4 1 2 2 2 0 2
6 8 4 5 6 7 7 4 9 10 8 6 11 16 15 12 10 16 19 13 15 16 15 17 19 18 18 16 13 10 10 14 14 10 13 14 13 12 13 11 9 11 10 11 13 13 13 13 12 11 10 11 10 10 10 8 7 8 7 8 6 5 3 2 5 5 4 3 4 4 4 4 4 4 4 5 6 6 4 4 3 2 1 3 1 3 2 2 3 1 2 3 3 3 3 3 2
10 10 8 7 9 9 7 10 7 6 6 9 11 1 3 10 7 14 18 17 16 13 13 16 17 18 18 16 13 9 11 13 13 14 14 12 13 14 14 12 11 11 15 13 14 10 10 12 12 12 10 10 9 9 9 10 9 7 6 6 7 6 5 5 2 3 4 3 3 4 5 6 4 5 5 4 4 6 5 5 4 3 2 2 2 1 2 1 1 3 2 4 3 4 1 2 1
10 9 10 9 10 6 8 6 7 8 8 10 14 9 8 9 1 9 12 12 10 11 10 10 13 17 17 17 14 13 12 7 7 12 11 13 13 12 12 13 11 11 14 16 14 12 10 12 12 11 11 11 9 9 9 9 9 8 7 5 6 7 7 5 4 1 1 3 2 4 4 2 5 5 3 3 2 2 4 5 5 4 3 3 3 3 3 2 2 2 2 3 2 4 3 2 2
10 10 8 11 11 4 11 3 6 5 6 7 6 3 7 7 13 6 5 7 11 9 6 7 9 12 16 16 15 13 13 11 12 8 10 8 10 9 9 12 10 11 10 12 16 14 14 12 12 12 12 12 11 10 9 9 9 9 8 7 7 7 5 6 4 3 3 4 4 3 3 2 2 1 2 4 4 4 3 4 5 5 4 5 4 3 3 3 3 2 2 2 2 3 2 3 2
11 11 14 12 6 10 10 7 6 7 7 8 8 9 8 9 9 18 13 15 9 5 7 8 12 12 7 5 8 12 9 13 9 10 9 9 11 11 11 11 12 12 12 11 14 14 12 12 13 12 12 12 13 11 10 9 8 11 11 9 8 7 7 7 7 7 6 4 2 2 3 4 4 2 1 3 4 3 2 3 4 6 5 4 5 4 3 2 1 2 3 3 3 2 2 4 5
3 11 10 8 9 12 8 9 4 6 6 6 9 3 8 8 6 16 18 9 10 6 5 12 15 14 14 13 14 13 13 9 5 3 7 10 9 12 10 12 13 12 13 10 11 13 14 12 13 13 14 13 13 13 12 10 9 9 11 12 10 8 6 8 8 9 8 6 5 6 6 6 6 5 5 1 2 5 4 5 4 3 4 5 5 5 4 4 3 4 3 2 3 1 2 2 4
11 7 7 12 10 12 9 8 9 8 9 6 8 2 7 6 4 7 9 16 11 10 14 11 13 15 14 12 8 13 12 10 6 3 5 7 8 9 10 12 13 11 5 7 10 10 12 11 12 12 13 14 15 12 12 10 10 9 8 10 12 12 11 10 9 9 8 8 9 8 6 3 4 4 4 4 3 5 4 4 3 4 4 5 4 4 4 3 4 3 3 3 3 3 3 4 4
15 12 14 9 8 9 9 8 8 3 8 8 5 6 4 2 4 2 13 13 19 15 12 15 16 13 12 12 12 16 14 10 10 7 1 8 11 10 7 10 14 12 9 6 10 9 13 10 11 11 12 12 11 13 11 11 12 10 10 9 8 6 8 8 9 7 7 8 8 8 7 7 7 5 6 6 5 5 5 6 7 6 6 6 5 6 5 4 3 3 3 4 2 1 2 3 3
12 11 9 7 8 6 7 7 10 8 7 6 4 5 3 1 1 4 11 14 12 7 6 9 13 14 14 16 15 16 14 11 9 7 5 5 6 6 7 10 6 11 10 9 4 4 2 4 12 13 12 14 13 14 14 10 9 7 8 10 10 9 10 9 10 10 7 7 7 7 7 8 5 6 5 6 7 6 5 6 7 6 7 4 4 3 3 3 3 3 3 3 2 2 2 3 3
11 10 10 11 12 11 9 9 9 11 8 3 5 2 4 2 2 7 14 14 15 13 11 6 11 12 13 11 13 13 14 13 11 9 7 6 7 7 7 7 10 8 9 9 7 5 4 7 11 8 10 10 11 9 9 9 9 9 9 9 10 10 9 8 9 10 11 10 9 8 7 5 7 6 6 6 5 7 5 5 6 5 3 6 4 5 6 4 3 4 4 6 5 4 4 4 4
Wind_Direction
201 217 214 220 218 240 76 55 298 156 172 230 132 272 86 187 110 114 111 126 112 110 97 91 75 34 72 78 78 53 39 59 14 123 113 128 145 137 134 130 128 124 122 125 125 128 127 127 125 121 119 101 102 110 103 122 122 126 132 132 131 126 125 128 125 120 119 117 115 111 111 108 109 107 108 106 105 107 108 103 108 112 115 114 109 108 103 100 98 96 92 92 93 96 95 94 92
207 207 219 211 211 128 294 150 258 292 221 214 133 138 137 131 125 116 121 126 114 114 98 85 83 88 99 111 87 71 55 61 78 91 100 126 137 132 133 127 127 128 126 128 131 128 122 123 122 118 112 129 131 107 167 141 132 131 136 136 133 127 122 117 116 116 115 115 111 115 115 113 111 108 105 108 111 109 106 112 117 118 123 131 121 110 107 102 98 97 90 78 89 95 96 95 92
212 210 213 205 38 38 119 214 96 249 304 181 118 128 137 130 112 110 116 108 107 113 118 108 106 101 94 80 75 79 81 86 95 99 112 132 127 132 124 126 132 130 128 132 131 126 122 120 119 119 122 124 127 136 149 138 134 137 137 135 130 124 116 113 114 110 106 113 118 116 122 118 112 111 114 116 117 114 116 118 118 115 114 111 110 110 108 102 95 86 86 98 94 96 94 94 93
264 264 326 12 33 304 223 206 217 276 313 119 101 132 122 120 113 119 114 113 118 116 128 115 101 283 101 91 93 98 98 93 97 113 123 141 124 131 131 138 132 127 128 127 127 115 116 122 115 115 121 127 131 134 142 129 133 136 135 130 133 127 121 116 119 114 114 118 119 125 125 123 113 109 117 120 116 115 117 119 123 118 118 114 110 112 106 103 97 95 91 88 97 97 98 94 95
254 281 2 80 22 312 304 268 307 208 233 312 130 122 121 118 123 123 117 122 120 120 89 86 82 73 69 85 99 95 105 107 108 112 118 119 125 127 127 127 114 116 122 122 114 113 117 117 119 121 123 120 122 130 132 133 134 132 133 134 135 132 120 115 119 122 118 119 120 123 129 122 115 115 123 124 122 124 125 125 129 123 121 113 109 110 107 103 102 104 100 99 100 100 100 100 99
237 169 265 39 89 211 267 270 229 253 307 283 120 124 127 128 124 125 122 119 118 105 115 96 84 96 86 86 100 113 134 112 114 107 118 122 125 133 133 122 115 121 124 110 110 115 118 118 118 118 117 119 122 125 127 131 133 136 139 137 114 93 102 121 123 125 122 120 124 136 128 122 117 126 124 123 128 127 129 132 131 129 121 114 109 105 107 105 103 102 101 95 99 99 98 98 94
198 137 17 113 65 285 293 287 5 350 284 297 165 129 131 129 129 123 123 125 104 115 99 105 109 103 88 87 98 86 91 112 117 119 119 118 111 120 123 116 122 124 124 110 109 108 109 112 116 116 116 113 110 113 120 121 129 137 129 108 99 116 121 123 125 128 132 132 136 136 129 124 127 131 124 126 129 130 131 132 130 125 115 108 101 103 106 105 105 107 108 109 104 99 95 93 89
68 349 15 323 336 5 268 293 275 52 283 270 156 132 133 133 130 119 114 123 135 115 128 120 90 93 92 98 100 109 106 102 110 114 117 118 122 122 119 116 122 123 107 104 104 106 107 109 115 116 115 113 112 115 117 116 111 113 109 112 119 135 135 130 127 135 139 146 145 141 134 127 131 131 132 130 131 127 128 130 128 119 119 108 97 101 107 110 110 108 105 99 93 92 88 88 90
14 107 113 263 324 138 269 79 169 168 244 293 127 123 135 133 125 120 133 122 122 124 116 107 113 105 112 105 92 102 103 110 112 118 118 121 123 130 127 138 130 114 110 109 111 110 110 110 109 109 105 104 108 112 112 112 105 110 129 129 141 138 137 143 132 137 138 148 148 136 129 132 136 138 136 134 131 127 127 124 121 123 119 107 107 108 108 107 107 104 99 98 96 94 90 88 89
96 222 351 320 332 295 81 64 198 7 275 171 125 137 136 134 123 126 126 129 122 117 101 104 109 105 107 101 109 113 113 119 120 120 124 127 135 135 129 129 119 113 111 113 111 113 116 113 109 105 103 102 105 112 118 128 138 131 104 105 123 145 152 140 140 141 145 146 145 133 133 133 133 133 133 132 128 124 124 123 121 125 120 116 119 114 104 101 105 100 97 98 101 98 99 93 84
116 343 166 303 323 298 167 166 103 177 214 127 127 129 131 121 120 124 122 121 125 107 105 113 114 114 111 104 99 114 119 125 127 122 121 122 127 127 118 99 97 102 107 108 112 115 115 111 108 105 104 107 102 97 89 92 98 107 120 137 137 138 128 135 135 144 145 140 139 139 135 137 134 133 131 129 125 122 121 121 122 124 124 124 122 112 109 110 105 100 100 101 102 102 97 93 85
271 131 208 347 300 8 144 166 141 195 162 133 119 136 145 129 126 127 125 134 119 120 125 134 117 120 109 111 117 130 128 126 121 120 121 125 125 113 108 106 110 106 105 109 111 112 114 113 106 107 106 104 103 101 97 94 105 107 121 128 127 121 120 133 133 141 140 132 134 136 138 135 134 134 132 126 123 122 121 122 126 126 128 124 121 114 113 111 106 104 103 104 102 100 97 96 92
225 171 91 231 292 276 124 155 162 116 144 131 124 119 149 140 133 132 127 108 110 121 120 113 122 123 118 117 123 129 128 122 123 123 126 122 118 123 112 113 112 109 111 109 108 111 113 112 114 104 103 104 106 108 108 111 113 116 119 122 123 120 133 136 134 137 121 117 128 133 126 125 127 127 122 123 123 124 125 128 133 132 133 130 123 114 114 110 102 101 105 105 106 106 106 102 107
248 149 87 340 245 258 138 137 174 156 145 120 30 70 5 124 134 132 121 124 131 113 132 136 135 117 112 124 136 135 128 128 126 127 123 124 131 124 113 110 109 109 107 109 93 91 107 114 110 105 105 104 107 101 104 110 117 124 128 126 122 125 127 130 134 129 125 132 133 127 121 124 124 117 120 124 125 123 127 130 129 127 127 125 125 118 113 103 100 97 94 104 111 120 118 118 121
216 107 72 171 301 314 128 149 180 173 150 203 68 61 228 314 139 138 138 126 116 137 132 122 113 135 141 143 142 136 137 133 132 128 126 131 122 121 114 112 111 110 109 107 105 115 113 114 93 107 110 112 110 116 113 111 116 115 110 114 123 127 128 128 124 125 126 129 129 116 119 122 121 114 112 119 122 124 123 120 120 123 126 125 122 117 107 101 102 103 111 118 129 123 124 126 136
272 94 131 343 310 157 182 115 247 146 149 184 98 143 136 235 7 111 74 104 124 111 145 130 167 118 146 137 135 136 133 133 130 127 131 127 121 112 116 111 106 110 115 114 100 84 106 91 104 117 120 115 116 115 109 107 103 105 109 116 115 122 127 127 125 123 122 129 124 120 126 121 114 117 124 114 118 122 120 121 124 126 126 121 114 109 105 104 106 114 122 140 145 145 143 153 155
295 173 104 75 289 265 156 158 204 184 126 108 138 163 146 135 39 128 219 210 145 125 147 126 115 142 140 130 131 132 133 130 132 133 129 121 124 126 121 114 113 118 119 109 110 142 124 118 124 126 119 119 119 117 110 103 108 106 103 108 117 120 122 124 121 109 116 116 119 120 112 102 106 106 109 116 116 104 118 126 126 126 120 118 113 112 113 117 123 135 156 157 163 163 170 181 195
222 187 258 243 212 286 141 139 186 112 124 148 161 177 141 138 138 141 159 142 111 148 143 127 146 129 117 123 130 133 132 134 136 134 130 132 130 127 124 117 120 114 120 119 119 108 133 121 117 119 125 129 133 123 115 115 111 112 114 115 116 117 115 118 117 116 117 112 115 111 111 111 109 106 109 112 116 125 133 131 125 121 116 117 116 115 114 114 131 148 175 183 196 196 200 192 205
242 191 256 304 221 127 90 117 125 146 144 156 148 166 156 146 162 157 146 141 145 153 139 140 115 111 120 129 133 135 138 136 138 133 137 136 129 134 126 109 119 125 119 119 119 120 142 135 118 118 119 139 144 128 118 120 119 124 121 120 109 110 115 106 112 118 121 118 116 115 115 125 117 117 119 123 130 140 133 126 123 117 118 119 118 110 119 151 208 214 217 223 214 226 220 247 206
38 278 242 237 216 88 104 141 157 145 136 144 154 161 165 156 163 157 146 144 159 148 131 119 123 126 132 134 139 139 140 139 136 141 138 134 131 127 129 128 122 114 129 126 125 119 139 138 136 136 139 154 138 121 123 129 143 136 129 128 120 122 124 131 115 97 125 136 128 141 126 121 130 131 129 139 138 135 124 124 123 125 125 123 124 133 142 213 238 251 247 236 235 236 237 240 225
165 208 165 243 104 111 81 134 161 144 138 144 135 119 144 190 181 176 150 143 142 124 125 132 134 136 136 141 142 144 142 141 142 142 135 131 130 133 137 127 128 106 117 119 116 119 132 123 120 134 143 143 126 122 122 133 125 125 131 127 130 131 131 126 130 142 139 139 153 141 129 132 125 125 136 148 146 138 135 131 135 143 149 140 165 136 188 169 220 210 233 236 235 232 225 222 201
266 313 303 71 124 102 99 151 137 130 126 139 138 150 156 152 94 285 160 142 140 134 134 133 136 138 140 143 145 145 147 143 144 140 138 140 137 135 132 116 128 127 137 110 114 124 130 135 144 136 147 153 124 129 121 125 120 130 130 135 135 132 132 128 126 127 135 142 143 131 130 126 136 146 147 138 138 145 151 150 158 168 159 158 194 162 187 195 218 221 216 219 231 236 227 235 242
266 349 39 78 99 115 108 155 128 124 138 141 150 132 124 136 120 201 88 309 130 149 134 136 136 139 140 141 145 149 147 146 147 141 142 128 140 138 128 121 125 126 126 130 116 134 135 147 148 154 152 151 151 143 124 142 146 138 137 141 135 132 136 133 129 126 131 144 143 133 135 141 141 146 136 134 141 155 157 168 169 161 168 157 192 185 196 213 233 237 227 241 232 234 110 187 272
274 109 88 75 105 99 107 143 119 123 143 131 102 128 126 170 116 63 85 235 190 146 141 136 137 140 142 143 147 149 148 146 143 142 141 140 141 131 136 129 120 120 124 121 124 141 147 140 139 146 148 144 142 151 161 156 142 142 136 149 131 135 138 134 133 131 147 158 148 150 144 148 151 143 142 150 151 175 166 174 154 165 161 166 196 191 188 219 231 235 243 225 220 194 163 149 104
266 30 70 90 87 93 123 135 135 128 115 118 76 127 147 134 120 131 146 262 165 142 138 138 140 142 144 145 147 148 149 147 140 149 139 140 133 136 129 117 123 129 136 137 132 137 135 136 147 148 148 148 150 167 164 141 149 139 136 141 137 153 161 132 126 136 138 137 141 134 147 141 144 146 153 152 167 173 158 163 181 186 163 166 198 205 205 201 236 256 247 266 304 259 155 173 191
67 91 90 106 102 105 117 136 129 121 118 118 105 108 99 89 133 144 179 206 141 146 143 141 142 145 147 147 144 148 152 145 141 146 137 139 133 134 129 128 133 134 137 128 129 132 129 128 136 141 141 145 153 155 119 139 109 115 143 152 150 184 165 131 140 140 134 136 130 97 111 151 150 148 150 147 158 161 164 196 308 233 128 162 209 199 223 208 236 225 221 233 235 229 30 350 257
108 105 106 104 109 116 154 149 133 117 108 129 119 126 171 166 222 121 157 157 152 147 144 142 148 147 146 144 146 152 150 145 147 133 140 137 133 134 128 131 132 129 139 125 129 130 137 129 136 133 120 129 143 143 156 122 121 160 174 158 167 181 146 151 151 135 129 136 139 159 185 204 158 147 148 158 164 154 129 277 268 242 163 171 225 240 183 230 317 283 22 10 303 315 196 266 209
105 108 100 95 110 122 144 130 121 120 106 159 134 114 115 81 195 132 139 153 153 147 143 149 150 147 148 145 146 152 143 149 140 141 143 136 144 136 132 132 128 133 130 126 134 133 135 137 142 137 137 142 141 146 139 139 153 161 140 132 172 128 132 168 205 133 136 145 156 176 186 184 185 165 160 173 154 139 133 205 234 292 249 262 123 250 142 223 199 54 27 349 333 313 305 224 262
123 115 99 93 105 108 122 131 122 116 141 174 137 93 76 75 124 142 150 153 159 144 151 153 150 148 147 146 144 153 141 148 145 143 145 137 148 137 132 136 130 131 131 132 136 136 144 147 135 135 137 144 149 148 157 165 156 143 156 161 159 163 170 188 148 125 135 147 146 160 175 174 159 125 97 123 141 159 156 187 202 217 145 205 179 89 57 350 347 169 186 172 260 258 302 21 296
134 121 118 116 121 120 157 134 130 131 144 175 184 125 144 157 146 159 160 154 152 154 158 153 152 149 148 148 153 147 148 146 156 146 138 148 149 144 136 135 135 132 128 142 131 146 142 127 128 127 135 138 144 146 145 143 153 143 176 180 168 180 187 144 120 116 109 101 96 89 81 61 48 58 134 162 151 184 166 181 138 201 125 74 60 346 77 56 32 21 9 355 351 339 304 308 286
214 124 135 135 136 154 184 154 168 158 168 161 26 160 142 161 154 162 156 157 160 163 159 158 155 151 150 151 159 148 147 154 149 149 139 158 151 142 142 132 131 128 137 147 136 140 139 134 134 140 132 130 132 129 143 146 144 143 161 152 165 144 122 126 131 131 137 133 123 100 108 118 85 108 297 31 156 140 124 152 161 112 116 148 98 70 348 104 59 59 25 350 338 295 312 335 298
206 137 186 155 179 126 183 171 196 155 157 110 205 63 149 166 174 188 161 163 172 168 165 163 158 154 157 155 160 151 151 155 149 160 147 165 142 157 139 133 134 140 143 134 126 137 131 131 130 130 130 131 127 135 129 108 115 129 143 170 158 146 143 137 144 145 140 135 133 127 128 131 142 110 78 33 26 81 186 112 74 91 62 65 53 45 266 103 79 62 5 332 53 335 330 303 253
216 229 188 179 168 140 163 209 171 197 143 183 212 170 127 164 173 189 175 167 171 167 168 172 158 161 154 159 162 151 157 161 156 164 151 165 138 165 134 139 137 141 134 135 137 132 132 133 131 137 134 129 134 124 108 109 126 143 165 144 147 152 147 139 140 135 136 135 126 123 123 109 115 94 68 29 6 278 111 111 138 112 104 76 36 356 342 342 328 103 125 274 336 325 306 303 287
220 217 248 133 150 153 198 149 180 207 172 167 164 174 163 160 165 185 178 176 173 169 170 185 160 163 161 164 167 152 163 168 157 164 152 157 145 150 131 130 140 137 133 139 139 142 136 139 141 132 131 135 124 122 131 144 148 154 159 114 96 110 118 123 83 100 99 116 123 124 128 131 117 116 119 50 345 351 14 105 101 94 86 66 32 35 300 38 344 4 343 273 17 328 294 290 265
219 220 213 148 150 167 170 175 185 174 186 178 170 171 157 165 174 188 186 182 179 174 173 180 170 164 166 175 163 158 164 171 156 159 157 153 147 146 133 144 143 137 145 138 139 132 136 138 121 124 133 130 131 138 142 131 128 138 126 125 127 143 147 118 127 126 130 150 126 126 140 138 140 133 122 55 13 335 21 159 108 129 119 103 132 312 249 162 141 284 335 308 322 274 266 277 312
243 283 30 60 108 247 187 176 164 173 174 179 171 171 179 165 186 178 188 183 176 173 183 171 185 164 169 177 162 165 164 172 155 163 161 153 149 149 136 146 143 149 142 134 135 134 110 117 130 130 131 133 134 135 143 146 151 153 138 153 168 110 211 145 145 140 127 131 135 138 114 133 133 137 89 107 82 216 212 189 127 152 117 138 143 238 341 283 94 298 343 360 322 303 280 278 267
228 214 141 189 159 176 174 145 176 178 169 184 171 135 181 168 176 203 176 176 163 116 193 182 177 179 172 188 164 167 169 167 158 163 164 148 155 144 146 143 151 143 134 140 141 138 139 144 141 136 134 134 148 148 157 160 147 150 145 163 154 162 154 137 130 134 145 148 143 131 151 146 135 133 146 144 173 187 22 145 93 10 105 148 159 93 296 283 166 153 30 358 316 283 256 241 259
279 75 140 139 172 137 286 156 176 178 206 162 154 141 197 172 175 196 187 179 180 175 166 193 179 180 175 192 166 174 166 164 164 161 169 148 160 147 150 149 152 144 142 147 149 146 148 148 149 140 137 148 153 158 162 146 147 153 165 158 158 143 141 123 147 152 161 137 119 137 152 137 139 142 137 133 222 93 25 262 105 142 192 258 210 187 190 284 52 3 19 344 249 288 308 334 55
239 119 114 114 81 88 271 249 167 211 92 236 158 191 157 187 170 215 188 189 180 184 174 185 188 176 176 192 173 174 170 168 169 164 172 155 160 151 156 151 157 149 151 154 146 151 147 145 144 143 147 154 158 145 150 138 136 83 59 52 5 137 132 118 120 146 138 142 148 149 131 136 146 144 162 144 188 91 356 351 15 109 308 101 9 351 321 40 17 59 344 262 319 309 278 326 138
234 137 204 171 144 144 192 222 154 216 194 176 185 182 141 151 187 198 223 193 177 185 200 175 333 190 178 192 184 171 173 172 175 166 175 159 162 151 158 157 157 154 158 154 155 158 152 144 148 150 152 151 145 135 135 128 98 96 84 91 93 325 92 305 138 153 155 150 149 147 139 151 167 158 173 178 118 122 180 135 1 351 174 74 123 288 67 238 148 35 240 281 340 347 300 170 173
215 213 195 177 164 185 156 180 173 201 223 182 161 172 141 207 180 188 210 199 181 177 209 224 254 305 321 191 192 170 187 175 179 170 176 166 163 155 165 153 160 163 163 161 158 160 152 153 154 152 159 139 142 139 121 112 119 100 73 77 109 95 67 171 162 150 147 133 146 152 155 168 179 162 173 173 141 142 134 124 196 265 254 139 271 193 1 348 309 195 111 309 294 311 306 20 347
237 231 249 169 177 172 157 156 148 158 186 230 150 73 222 185 197 201 165 185 214 190 203 213 215 235 223 206 192 186 195 180 181 176 179 164 171 153 164 160 166 168 164 168 161 160 152 156 152 155 149 139 152 126 125 133 123 118 123 116 111 144 115 55 69 138 147 153 171 159 156 175 176 162 161 187 140 151 150 163 185 230 195 149 169 99 324 255 112 344 101 21 321 335 342 320 180
238 225 218 202 167 140 124 158 161 139 209 180 198 186 157 139 223 197 165 199 206 192 203 213 212 214 214 196 192 178 204 181 179 181 182 165 176 157 167 167 170 169 170 168 165 156 153 156 156 159 151 146 138 134 144 137 133 143 160 142 139 108 122 102 353 54 94 116 79 171 150 170 167 165 167 169 142 141 171 145 182 136 282 193 163 177 88 341 77 248 355 20 358 344 327 333 343
240 262 265 210 120 123 149 155 174 210 226 98 192 190 207 193 225 199 183 191 203 200 203 209 209 210 213 201 190 189 195 187 188 178 185 171 176 164 173 169 173 174 173 169 166 158 153 151 155 157 147 143 155 144 164 147 143 158 99 113 142 121 126 126 159 58 198 90 180 173 191 159 174 177 150 153 172 153 174 179 162 215 146 310 126 156 75 328 324 253 135 318 21 333 315 346 345
249 213 337 193 147 163 153 158 170 167 120 174 215 214 259 223 184 188 184 193 200 203 201 204 205 206 212 209 196 194 197 190 190 177 185 178 179 168 175 175 173 174 170 172 164 154 149 151 153 149 150 152 152 154 156 157 147 138 128 139 122 117 135 108 73 298 237 155 150 180 199 169 185 171 168 169 180 174 168 192 183 216 238 177 349 59 125 144 264 346 58 153 236 334 311 340 331
238 281 286 313 163 160 162 181 176 151 159 196 202 206 221 228 176 180 194 208 204 202 199 201 199 197 205 211 202 201 192 188 202 191 180 182 177 173 173 182 173 175 168 170 160 149 153 153 157 154 148 149 149 157 161 149 146 122 139 149 139 149 147 139 175 163 184 130 135 148 318 174 181 184 175 176 174 190 175 191 192 199 215 210 117 117 93 259 209 202 181 72 61 238 305 308 287
258 184 265 297 234 199 211 207 211 204 215 222 179 192 193 174 206 189 184 211 200 190 193 197 195 192 197 208 200 209 198 188 197 186 184 178 181 173 173 179 182 171 162 175 159 152 155 156 160 161 149 153 160 162 164 159 153 136 140 151 153 164 152 142 154 151 115 96 127 195 189 224 249 185 186 179 185 200 179 199 210 182 206 132 191 142 189 232 231 163 191 165 177 327 315 341 321
228 223 206 216 252 297 293 242 183 239 246 224 173 182 182 208 187 204 211 212 196 192 193 190 192 190 191 197 203 197 200 193 190 188 185 180 165 159 177 179 183 169 163 175 160 155 156 156 159 158 153 155 164 165 165 168 160 142 143 140 147 140 148 141 153 151 159 160 169 185 166 266 226 217 199 173 199 204 174 195 223 167 170 152 290 191 4 43 52 357 354 130 167 181 246 25 305
229 248 147 239 223 195 219 229 220 205 230 229 219 192 184 224 173 187 195 198 198 199 195 194 191 189 188 195 193 194 206 199 191 194 180 179 160 166 185 179 193 169 149 171 155 156 155 157 159 158 162 155 166 170 167 162 163 142 151 152 152 145 161 152 162 156 173 209 172 170 191 216 217 236 212 191 192 207 157 184 212 185 86 171 121 352 45 142 124 349 326 303 188 173 214 224 190
213 229 197 220 243 205 226 224 235 267 246 259 275 328 276 84 121 176 178 188 194 193 198 194 192 187 186 187 189 200 208 198 200 186 184 180 162 182 181 172 191 174 158 165 148 146 148 161 161 163 166 160 165 170 168 167 157 140 146 156 156 153 152 169 174 163 173 193 203 184 198 192 202 214 211 213 199 200 173 179 193 206 172 189 186 220 218 291 136 143 240 273 50 314 15 277 317
201 253 224 227 252 232 219 222 222 230 267 244 210 202 195 156 107 190 173 185 179 183 197 193 189 187 185 182 186 186 194 223 248 178 195 168 174 182 178 171 177 176 171 169 153 153 162 155 164 161 165 160 166 172 167 173 146 151 158 163 174 161 164 156 165 179 245 224 215 213 224 196 195 212 206 206 205 213 186 158 174 197 187 189 184 203 202 205 246 188 176 297 100 292 245 230 254
190 219 230 230 242 264 276 269 247 255 282 271 248 224 50 84 157 142 186 190 205 159 180 178 181 190 183 185 186 197 183 186 204 206 172 167 162 191 171 167 169 176 171 175 147 157 163 160 166 166 168 164 168 174 170 178 149 160 160 177 187 181 150 151 146 180 205 235 211 196 216 169 239 260 160 240 195 201 189 168 170 199 186 180 197 202 208 200 185 192 233 244 264 215 321 296 233
175 195 223 230 230 260 272 264 230 286 261 249 271 97 95 127 131 120 166 188 198 161 174 195 188 174 140 173 196 183 185 189 196 190 164 177 173 186 179 170 174 178 175 181 146 158 156 159 163 167 169 171 169 174 174 178 173 158 169 171 180 181 178 166 169 184 193 219 270 172 212 199 182 210 173 205 208 186 195 193 185 199 180 191 190 195 210 177 175 217 192 217 235 262 69 329 313
255 191 217 228 255 276 266 277 222 218 272 271 281 180 145 158 145 142 155 161 173 159 212 219 197 168 170 186 192 198 191 180 170 166 170 182 178 174 174 175 180 175 177 171 148 153 150 160 162 167 172 175 173 176 175 181 177 172 169 173 179 171 183 181 193 181 187 176 182 219 210 182 195 200 194 206 176 207 181 209 201 213 176 197 202 196 198 182 171 219 205 175 226 180 96 307 284
257 254 153 206 187 217 241 277 251 225 208 245 229 211 68 341 96 159 171 161 147 186 195 199 177 177 171 171 195 191 185 176 162 160 193 163 181 169 175 178 181 172 149 147 147 149 151 160 163 170 173 176 177 178 175 177 180 183 183 184 181 174 179 194 177 191 167 187 188 201 207 191 195 198 162 191 238 209 195 190 224 202 199 194 201 210 183 196 195 216 215 192 208 191 162 218 259
257 264 276 257 240 228 214 209 280 255 255 227 196 245 116 59 138 259 189 125 165 183 160 174 171 173 164 179 185 188 181 178 164 157 277 173 172 178 175 178 183 154 132 139 158 159 172 166 169 171 176 176 177 178 175 178 183 191 182 180 186 186 181 183 168 174 180 187 197 201 183 199 216 190 193 169 213 220 188 203 200 214 204 204 197 206 198 194 205 208 217 223 167 170 218 227 244
217 242 244 219 231 239 248 197 206 229 266 278 317 223 110 84 38 9 68 106 161 161 173 176 166 172 182 170 180 184 183 181 169 139 154 90 90 127 152 194 151 154 145 136 131 98 19 186 183 181 185 175 182 181 173 177 182 198 181 176 189 188 192 196 183 171 181 194 189 208 193 194 200 189 219 170 197 205 196 206 207 207 207 183 195 204 218 194 192 206 179 252 160 199 224 234 243
224 223 221 233 201 214 194 236 210 222 231 222 233 243 131 110 193 98 89 125 147 162 172 164 164 167 176 162 172 172 181 184 176 163 144 94 93 101 83 95 111 117 109 103 88 66 66 26 355 317 208 176 178 194 168 166 179 193 193 186 192 183 198 193 204 188 181 190 197 192 211 181 204 194 196 204 202 202 195 214 217 212 179 186 185 195 207 192 214 193 222 218 200 190 202 227 247